When you browse on this site, cookies collect data to enhance your experience and personalize the content and advertising you see.
Visit our Privacy Policy to learn more. By continuing to use the site, you agree to this use of cookies and data.
EN

Hourly Weather Mongu

Today, 6 July, Monday

Time Temperature Precipitation Wind Pressure Humidity
00:00 +14°C° 0 mm 2 mps 676 mmHg 43%
01:00 +12°C° 0 mm 3 mps 675 mmHg 48%
02:00 +11°C° 0 mm 3 mps 675 mmHg 52%
03:00 +10°C° 0 mm 2 mps 675 mmHg 57%
04:00 +9°C° 0 mm 2 mps 675 mmHg 61%
05:00 +8°C° 0 mm 2 mps 675 mmHg 66%
06:00 +9°C° 0 mm 2 mps 675 mmHg 65%
07:00 +10°C° 0 mm 2 mps 676 mmHg 63%
08:00 +10°C° 0 mm 2 mps 676 mmHg 62%
09:00 +16°C° 0 mm 3 mps 677 mmHg 50%
10:00 +20°C° 0 mm 3 mps 678 mmHg 38%
11:00 +25°C° 0 mm 4 mps 679 mmHg 26%
12:00 +27°C° 0 mm 4 mps 678 mmHg 22%
13:00 +28°C° 0 mm 3 mps 677 mmHg 18%
14:00 +30°C° 0 mm 3 mps 677 mmHg 14%
15:00 +29°C° 0 mm 3 mps 676 mmHg 14%
16:00 +29°C° 0 mm 3 mps 676 mmHg 14%
17:00 +29°C° 0 mm 3 mps 675 mmHg 14%
18:00 +26°C° 0 mm 2 mps 675 mmHg 18%
19:00 +21°C° 0 mm 2 mps 675 mmHg 22%
20:00 +17°C° 0 mm 2 mps 674 mmHg 26%
21:00 +16°C° 0 mm 1 mps 674 mmHg 29%
22:00 +15°C° 0 mm 1 mps 674 mmHg 32%
23:00 +13°C° 0 mm 1 mps 674 mmHg 35%

Tomorrow, 7 July, Tuesday

Time Temperature Precipitation Wind Pressure Humidity
00:00 +12°C° 0 mm 1 mps 674 mmHg 38%
01:00 +10°C° 0 mm 2 mps 674 mmHg 40%
02:00 +9°C° 0 mm 2 mps 674 mmHg 43%
03:00 +9°C° 0 mm 2 mps 674 mmHg 46%
04:00 +8°C° 0 mm 2 mps 674 mmHg 49%
05:00 +8°C° 0 mm 2 mps 673 mmHg 51%
06:00 +9°C° 0 mm 2 mps 674 mmHg 49%
07:00 +10°C° 0 mm 2 mps 675 mmHg 46%
08:00 +12°C° 0 mm 2 mps 675 mmHg 44%
09:00 +16°C° 0 mm 3 mps 676 mmHg 34%
10:00 +20°C° 0 mm 4 mps 677 mmHg 25%
11:00 +26°C° 0 mm 5 mps 677 mmHg 16%
12:00 +27°C° 0 mm 5 mps 677 mmHg 15%
13:00 +28°C° 0 mm 4 mps 676 mmHg 13%
14:00 +29°C° 0 mm 4 mps 675 mmHg 12%
15:00 +29°C° 0 mm 4 mps 675 mmHg 12%
16:00 +28°C° 0 mm 3 mps 674 mmHg 13%
17:00 +28°C° 0 mm 3 mps 674 mmHg 13%
18:00 +25°C° 0 mm 3 mps 674 mmHg 16%
19:00 +20°C° 0 mm 2 mps 673 mmHg 19%
20:00 +17°C° 0 mm 2 mps 673 mmHg 23%
21:00 +16°C° 0 mm 2 mps 673 mmHg 25%
22:00 +15°C° 0 mm 2 mps 673 mmHg 27%
23:00 +14°C° 0 mm 2 mps 674 mmHg 30%

Day after tomorrow, 8 July, Wednesday

Time Temperature Precipitation Wind Pressure Humidity
00:00 +14°C° 0 mm 2 mps 673 mmHg 32%
01:00 +14°C° 0 mm 2 mps 673 mmHg 34%
02:00 +13°C° 0 mm 2 mps 673 mmHg 37%
03:00 +13°C° 0 mm 2 mps 673 mmHg 42%
04:00 +12°C° 0 mm 2 mps 673 mmHg 48%
05:00 +10°C° 0 mm 2 mps 673 mmHg 53%
06:00 +12°C° 0 mm 2 mps 674 mmHg 52%
07:00 +12°C° 0 mm 3 mps 674 mmHg 50%
08:00 +13°C° 0 mm 3 mps 675 mmHg 49%
09:00 +18°C° 0 mm 3 mps 676 mmHg 41%
10:00 +22°C° 0 mm 4 mps 677 mmHg 33%
11:00 +27°C° 0 mm 4 mps 678 mmHg 25%
12:00 +28°C° 0 mm 4 mps 677 mmHg 22%
13:00 +30°C° 0 mm 3 mps 676 mmHg 19%
14:00 +31°C° 0 mm 3 mps 676 mmHg 16%
15:00 +31°C° 0 mm 2 mps 675 mmHg 16%
16:00 +30°C° 0 mm 2 mps 675 mmHg 16%
17:00 +30°C° 0 mm 1 mps 675 mmHg 16%
18:00 +27°C° 0 mm 1 mps 674 mmHg 21%
19:00 +23°C° 0 mm 1 mps 674 mmHg 25%
20:00 +18°C° 0 mm 0 mps 674 mmHg 30%
21:00 +19°C° 0 mm 1 mps 674 mmHg 32%
22:00 +18°C° 0 mm 1 mps 674 mmHg 34%
23:00 +16°C° 0 mm 1 mps 675 mmHg 36%

9 July, Thursday

Time Temperature Precipitation Wind Pressure Humidity
00:00 +15°C° 0 mm 1 mps 674 mmHg 39%
01:00 +14°C° 0 mm 1 mps 674 mmHg 42%
02:00 +13°C° 0 mm 1 mps 673 mmHg 46%
03:00 +13°C° 0 mm 2 mps 674 mmHg 49%
04:00 +12°C° 0 mm 2 mps 674 mmHg 52%
05:00 +12°C° 0 mm 2 mps 674 mmHg 56%
06:00 +13°C° 0 mm 2 mps 674 mmHg 57%
07:00 +13°C° 0 mm 3 mps 675 mmHg 58%
08:00 +14°C° 0 mm 3 mps 676 mmHg 59%
09:00 +18°C° 0 mm 3 mps 676 mmHg 52%
10:00 +22°C° 0 mm 4 mps 677 mmHg 44%
11:00 +27°C° 0 mm 4 mps 677 mmHg 36%
12:00 +29°C° 0 mm 3 mps 677 mmHg 30%
13:00 +31°C° 0 mm 3 mps 676 mmHg 24%
14:00 +34°C° 0 mm 2 mps 676 mmHg 17%
15:00 +32°C° 0 mm 1 mps 675 mmHg 17%
16:00 +32°C° 0 mm 1 mps 675 mmHg 18%
17:00 +29°C° 0 mm 0 mps 675 mmHg 18%
18:00 +26°C° 0 mm 0 mps 674 mmHg 23%
19:00 +22°C° 0 mm 0 mps 674 mmHg 28%
20:00 +19°C° 0 mm 0 mps 673 mmHg 33%
21:00 +20°C° 0 mm 1 mps 674 mmHg 35%
22:00 +19°C° 0 mm 1 mps 674 mmHg 37%
23:00 +18°C° 0 mm 2 mps 674 mmHg 39%

10 July, Friday

Time Temperature Precipitation Wind Pressure Humidity
00:00 +17°C° 0 mm 2 mps 674 mmHg 44%
01:00 +17°C° 0 mm 2 mps 674 mmHg 48%
02:00 +16°C° 0 mm 2 mps 673 mmHg 53%
03:00 +15°C° 0 mm 2 mps 673 mmHg 57%
04:00 +15°C° 0 mm 2 mps 673 mmHg 60%
05:00 +14°C° 0 mm 2 mps 673 mmHg 64%
06:00 +14°C° 0 mm 3 mps 673 mmHg 63%
07:00 +16°C° 0 mm 3 mps 674 mmHg 63%
08:00 +16°C° 0 mm 3 mps 675 mmHg 62%
09:00 +20°C° 0 mm 3 mps 675 mmHg 52%
10:00 +25°C° 0 mm 3 mps 676 mmHg 42%
11:00 +29°C° 0 mm 4 mps 676 mmHg 32%
12:00 +31°C° 0 mm 3 mps 676 mmHg 26%
13:00 +34°C° 0 mm 2 mps 676 mmHg 20%
14:00 +35°C° 0 mm 1 mps 675 mmHg 15%
15:00 +34°C° 0 mm 1 mps 675 mmHg 15%
16:00 +34°C° 0 mm 1 mps 674 mmHg 15%
17:00 +33°C° 0 mm 1 mps 674 mmHg 15%
18:00 +30°C° 0 mm 1 mps 673 mmHg 19%
19:00 +26°C° 0 mm 1 mps 673 mmHg 24%
20:00 +23°C° 0 mm 1 mps 673 mmHg 28%
21:00 +22°C° 0 mm 1 mps 673 mmHg 29%
22:00 +21°C° 0 mm 1 mps 673 mmHg 31%
23:00 +20°C° 0 mm 1 mps 673 mmHg 33%

11 July, Saturday

Time Temperature Precipitation Wind Pressure Humidity
00:00 +19°C° 0 mm 1 mps 673 mmHg 34%
01:00 +18°C° 0 mm 2 mps 672 mmHg 36%
02:00 +17°C° 0 mm 2 mps 672 mmHg 37%
03:00 +16°C° 0 mm 2 mps 672 mmHg 38%
04:00 +16°C° 0 mm 2 mps 672 mmHg 40%
05:00 +15°C° 0 mm 1 mps 672 mmHg 41%
06:00 +16°C° 0 mm 1 mps 673 mmHg 39%
07:00 +18°C° 0 mm 1 mps 674 mmHg 37%
08:00 +18°C° 0 mm 2 mps 675 mmHg 36%
09:00 +23°C° 0 mm 1 mps 675 mmHg 30%
10:00 +27°C° 0 mm 1 mps 676 mmHg 24%
11:00 +32°C° 0 mm 1 mps 677 mmHg 18%
12:00 +34°C° 0 mm 2 mps 676 mmHg 16%
13:00 +35°C° 0 mm 2 mps 676 mmHg 14%
14:00 +36°C° 0 mm 3 mps 676 mmHg 12%
15:00 +35°C° 0 mm 3 mps 675 mmHg 12%
16:00 +34°C° 0 mm 3 mps 675 mmHg 13%
17:00 +34°C° 0 mm 4 mps 674 mmHg 13%
18:00 +29°C° 0 mm 4 mps 674 mmHg 17%
19:00 +26°C° 0 mm 3 mps 674 mmHg 20%
20:00 +22°C° 0 mm 3 mps 674 mmHg 23%
21:00 +21°C° 0 mm 4 mps 675 mmHg 26%
22:00 +20°C° 0 mm 4 mps 675 mmHg 29%
23:00 +19°C° 0 mm 4 mps 675 mmHg 32%
Show more